Back to catalog

STARLINK-36847

AliveCommunicationsVLEO
NORAD 67910·PAYLOAD·🇺🇸 United States

Launched Feb 22, 2026 from Vandenberg Space Force Base

Loading…

Next Passes (next 24 hours)

TLE

FreshSource: CelesTrak SupGP

Epoch: Sep 14, 2026, 22:50 UTC

1 67910C 26036G   26257.95187500  .00033480  00000+0  12123-2 0  2572
2 67910  43.0011 256.5362 0001436 264.6823 177.8404 15.27571079    14

Track STARLINK-36847 in real time with AllMySat

Download on the App Store